Wetterdaten: aktuell Donnerstag, 29.06.2017 05:45
Datum Zeit Temp. A. Feuchte A. Luftdruck Regen Wind Richtung Richtung Windben
29.06.2017 05:45 13,7 C 96 % 997,7 hPa 0,0 l/m 0,0 km/h N 3 0,0 km/h
29.06.2017 05:40 13,8 C 96 % 997,8 hPa 0,0 l/m 0,0 km/h N-NW 346 0,0 km/h
29.06.2017 05:35 13,9 C 96 % 997,9 hPa 0,0 l/m 0,0 km/h N-NW 346 0,0 km/h
29.06.2017 05:30 13,9 C 96 % 997,7 hPa 0,0 l/m 0,0 km/h N-NW 346 0,0 km/h
29.06.2017 05:25 13,9 C 96 % 997,6 hPa 0,0 l/m 0,0 km/h N-NW 347 0,0 km/h
29.06.2017 05:20 13,9 C 96 % 997,7 hPa 0,0 l/m 0,0 km/h N-NW 346 0,0 km/h
29.06.2017 05:15 13,9 C 96 % 997,6 hPa 0,0 l/m 0,0 km/h N-NW 346 0,0 km/h
29.06.2017 05:10 13,9 C 96 % 997,5 hPa 0,0 l/m 0,0 km/h N 352 0,0 km/h
29.06.2017 05:05 14,0 C 96 % 997,5 hPa 0,0 l/m 0,0 km/h N 7 0,0 km/h
29.06.2017 05:00 14,1 C 96 % 997,6 hPa 0,0 l/m 0,0 km/h N 359 0,0 km/h
29.06.2017 04:55 14,1 C 96 % 997,5 hPa 0,0 l/m 0,0 km/h N 359 0,0 km/h
29.06.2017 04:50 14,2 C 96 % 997,4 hPa 0,0 l/m 0,0 km/h N 7 0,0 km/h
29.06.2017 04:45 14,2 C 96 % 997,4 hPa 0,0 l/m 0,0 km/h N-NO 30 0,0 km/h
29.06.2017 04:40 14,2 C 96 % 997,4 hPa 0,0 l/m 0,0 km/h N-NW 345 0,0 km/h
29.06.2017 04:35 14,3 C 96 % 997,4 hPa 0,0 l/m 0,0 km/h N-NO 27 0,0 km/h
29.06.2017 04:30 14,2 C 96 % 997,3 hPa 0,0 l/m 0,0 km/h N-NW 335 0,0 km/h
29.06.2017 04:25 14,3 C 96 % 997,4 hPa 0,0 l/m 0,0 km/h N 360 0,0 km/h
29.06.2017 04:20 14,3 C 96 % 997,3 hPa 0,0 l/m 0,0 km/h N 7 0,0 km/h
29.06.2017 04:15 14,4 C 96 % 997,3 hPa 0,0 l/m 0,0 km/h N 360 0,0 km/h
29.06.2017 04:10 14,4 C 96 % 997,3 hPa 0,0 l/m 0,0 km/h N-NW 346 0,0 km/h
29.06.2017 04:05 14,4 C 96 % 997,2 hPa 0,0 l/m 0,0 km/h N-NW 346 0,0 km/h
29.06.2017 04:00 14,5 C 96 % 997,2 hPa 0,0 l/m 0,0 km/h N-NW 346 0,0 km/h
29.06.2017 03:55 14,7 C 96 % 996,9 hPa 0,0 l/m 0,0 km/h N 358 0,0 km/h
29.06.2017 03:50 14,8 C 96 % 997,1 hPa 0,0 l/m 0,0 km/h N 7 0,0 km/h
29.06.2017 03:45 14,9 C 96 % 997,5 hPa 0,0 l/m 0,0 km/h N 1 0,0 km/h
29.06.2017 03:40 14,9 C 96 % 997,7 hPa 0,0 l/m 0,0 km/h N 1 0,0 km/h
29.06.2017 03:35 14,9 C 96 % 997,8 hPa 0,0 l/m 0,0 km/h N 1 0,0 km/h
29.06.2017 03:30 15,0 C 96 % 997,7 hPa 0,0 l/m 0,0 km/h N 7 0,0 km/h
29.06.2017 03:25 15,1 C 96 % 997,8 hPa 0,0 l/m 0,0 km/h N 360 0,0 km/h
29.06.2017 03:20 15,2 C 96 % 997,8 hPa 0,0 l/m 0,0 km/h N 360 0,0 km/h
29.06.2017 03:15 15,2 C 96 % 997,9 hPa 0,0 l/m 0,0 km/h N 360 0,0 km/h
29.06.2017 03:10 15,2 C 96 % 997,8 hPa 0,0 l/m 0,0 km/h N 360 0,0 km/h
29.06.2017 03:05 15,3 C 96 % 997,8 hPa 0,0 l/m 0,0 km/h N 360 0,0 km/h
29.06.2017 03:00 15,3 C 96 % 997,7 hPa 0,0 l/m 0,0 km/h N 359 0,0 km/h
29.06.2017 02:55 15,3 C 96 % 998,0 hPa 0,0 l/m 0,0 km/h NO 41 0,0 km/h
29.06.2017 02:50 15,5 C 96 % 998,1 hPa 0,0 l/m 0,0 km/h NO 41 0,0 km/h
29.06.2017 02:45 15,7 C 96 % 998,3 hPa 0,0 l/m 0,0 km/h NO 41 0,0 km/h
29.06.2017 02:40 15,8 C 96 % 998,4 hPa 0,0 l/m 0,0 km/h NO 41 0,0 km/h
29.06.2017 02:36 15,8 C 96 % 998,4 hPa 0,0 l/m 0,0 km/h NO 41 0,0 km/h
29.06.2017 02:30 15,9 C 96 % 997,9 hPa 0,0 l/m 0,0 km/h N-NO 31 0,0 km/h
29.06.2017 02:25 15,9 C 96 % 998,1 hPa 0,0 l/m 0,0 km/h N 350 0,0 km/h
29.06.2017 02:20 16,0 C 96 % 998,2 hPa 0,0 l/m 0,0 km/h N 350 0,0 km/h
29.06.2017 02:15 16,1 C 96 % 998,2 hPa 0,0 l/m 0,0 km/h N 350 0,0 km/h
29.06.2017 02:10 16,1 C 96 % 998,5 hPa 0,0 l/m 0,0 km/h N 350 0,0 km/h
29.06.2017 02:05 15,9 C 96 % 998,5 hPa 0,0 l/m 0,0 km/h N 350 0,0 km/h
29.06.2017 02:00 15,9 C 96 % 998,4 hPa 0,0 l/m 0,0 km/h N 350 0,0 km/h
29.06.2017 01:55 15,8 C 96 % 998,3 hPa 0,0 l/m 0,0 km/h N 350 0,0 km/h
29.06.2017 01:51 15,8 C 96 % 998,0 hPa 0,2 l/m 0,0 km/h N 350 0,0 km/h
29.06.2017 01:45 15,9 C 95 % 997,6 hPa 0,0 l/m 0,0 km/h N 360 0,0 km/h
29.06.2017 01:40 16,0 C 95 % 998,3 hPa 0,0 l/m 0,0 km/h N-NO 25 0,0 km/h
29.06.2017 01:35 16,1 C 95 % 998,8 hPa 0,0 l/m 0,0 km/h N-NO 24 0,0 km/h
29.06.2017 01:30 16,1 C 95 % 999,2 hPa 0,2 l/m 0,0 km/h N-NO 24 0,0 km/h
29.06.2017 01:25 16,1 C 95 % 999,5 hPa 0,2 l/m 0,0 km/h N-NO 24 0,0 km/h
29.06.2017 01:21 16,2 C 95 % 999,3 hPa 0,0 l/m 0,0 km/h N-NO 12 0,0 km/h
29.06.2017 01:15 16,2 C 95 % 999,5 hPa 0,4 l/m 0,0 km/h N 355 0,0 km/h
29.06.2017 01:10 16,2 C 95 % 1000,1 hPa 0,2 l/m 0,0 km/h N 350 0,0 km/h
29.06.2017 01:05 16,3 C 95 % 1000,4 hPa 0,2 l/m 0,0 km/h N 360 1,6 km/h
29.06.2017 01:00 16,3 C 95 % 1000,6 hPa 0,4 l/m 0,0 km/h N 7 0,0 km/h
29.06.2017 00:55 16,3 C 95 % 1001,0 hPa 0,2 l/m 0,0 km/h N-NW 333 0,0 km/h
29.06.2017 00:50 16,3 C 95 % 1001,5 hPa 0,2 l/m 0,0 km/h NW 309 0,0 km/h
29.06.2017 00:45 16,3 C 95 % 1001,5 hPa 0,0 l/m 0,0 km/h SW 223 0,0 km/h
29.06.2017 00:40 16,4 C 95 % 1001,6 hPa 0,0 l/m 0,0 km/h S-SO 155 0,0 km/h
29.06.2017 00:35 16,4 C 95 % 1001,4 hPa 0,0 l/m 0,0 km/h O 92 0,0 km/h
29.06.2017 00:30 16,3 C 95 % 1001,1 hPa 0,0 l/m 0,0 km/h NO 44 0,0 km/h
29.06.2017 00:25 16,4 C 95 % 1000,8 hPa 0,2 l/m 0,0 km/h NO 44 0,0 km/h
29.06.2017 00:20 16,3 C 95 % 1000,6 hPa 0,0 l/m 0,0 km/h NO 48 0,0 km/h
29.06.2017 00:15 16,2 C 94 % 1001,0 hPa 1,4 l/m 0,0 km/h SO 133 0,0 km/h
29.06.2017 00:10 16,1 C 94 % 1001,6 hPa 0,8 l/m 0,0 km/h SO 142 3,2 km/h
29.06.2017 00:05 15,9 C 93 % 999,9 hPa 0,0 l/m 0,0 km/h N-NW 331 0,0 km/h
29.06.2017 00:00 15,8 C 93 % 999,1 hPa 0,0 l/m 0,0 km/h N-NW 340 0,0 km/h
28.06.2017 23:55 15,8 C 93 % 999,1 hPa 0,0 l/m 0,0 km/h N-NW 340 0,0 km/h
28.06.2017 23:50 15,8 C 93 % 999,0 hPa 0,0 l/m 0,0 km/h NW 311 0,0 km/h
28.06.2017 23:45 15,7 C 93 % 999,2 hPa 0,0 l/m 0,1 km/h N 360 3,2 km/h
28.06.2017 23:40 15,8 C 94 % 999,2 hPa 0,0 l/m 0,0 km/h N 352 0,0 km/h
28.06.2017 23:35 15,8 C 93 % 999,7 hPa 0,0 l/m 0,0 km/h N-NO 12 0,0 km/h
28.06.2017 23:30 15,8 C 94 % 999,9 hPa 0,0 l/m 0,0 km/h N 351 0,0 km/h
28.06.2017 23:25 15,8 C 93 % 999,9 hPa 0,0 l/m 0,0 km/h N 356 0,0 km/h
28.06.2017 23:20 15,9 C 93 % 1000,0 hPa 0,0 l/m 0,0 km/h N-NO 12 0,0 km/h
28.06.2017 23:15 16,0 C 93 % 999,9 hPa 0,0 l/m 0,0 km/h N 356 0,0 km/h
28.06.2017 23:10 16,2 C 92 % 999,8 hPa 0,0 l/m 0,0 km/h N 2 0,0 km/h
28.06.2017 23:05 16,3 C 92 % 999,8 hPa 0,0 l/m 0,0 km/h N-NW 337 0,0 km/h
28.06.2017 23:00 16,4 C 92 % 999,9 hPa 0,0 l/m 0,0 km/h N-NW 337 0,0 km/h
28.06.2017 22:55 16,4 C 92 % 999,4 hPa 0,0 l/m 0,0 km/h N-NW 343 0,0 km/h
28.06.2017 22:51 16,6 C 91 % 999,3 hPa 0,0 l/m 0,0 km/h N 354 0,0 km/h
28.06.2017 22:45 16,7 C 92 % 999,6 hPa 0,0 l/m 0,0 km/h N 355 0,0 km/h
28.06.2017 22:40 16,8 C 93 % 999,4 hPa 0,0 l/m 0,3 km/h N-NW 346 6,4 km/h
28.06.2017 22:35 16,9 C 93 % 999,7 hPa 0,2 l/m 6,3 km/h N-NW 345 19,3 km/h
28.06.2017 22:30 17,0 C 94 % 1000,1 hPa 0,2 l/m 0,4 km/h N-NO 17 4,8 km/h
28.06.2017 22:25 17,1 C 93 % 1000,8 hPa 0,2 l/m 0,0 km/h N-NW 343 1,6 km/h
28.06.2017 22:20 17,1 C 93 % 1001,4 hPa 0,6 l/m 0,0 km/h N 7 0,0 km/h
28.06.2017 22:15 17,2 C 92 % 1001,7 hPa 0,0 l/m 0,0 km/h N-NW 345 0,0 km/h
28.06.2017 22:10 17,3 C 92 % 1002,0 hPa 0,2 l/m 0,0 km/h N-NO 12 0,0 km/h
28.06.2017 22:05 17,4 C 92 % 1002,3 hPa 0,2 l/m 0,0 km/h N-NO 12 0,0 km/h
28.06.2017 22:00 17,5 C 91 % 1002,7 hPa 0,4 l/m 0,0 km/h S-SO 158 0,0 km/h
28.06.2017 21:55 17,5 C 91 % 1002,7 hPa 0,0 l/m 0,0 km/h S-SO 158 0,0 km/h
28.06.2017 21:50 17,5 C 90 % 1002,5 hPa 0,2 l/m 0,0 km/h S-SO 158 0,0 km/h
28.06.2017 21:45 17,5 C 90 % 1002,1 hPa 0,2 l/m 0,0 km/h O-SO 108 0,0 km/h
_ Min-Zeit 05:45 10:06 03:55 - 06:00 - - 06:00
Minimum _ 13,7 C 56 % 996,9 hPa - 0,0 km/h - - 0,0 km/h
_ Max-Zeit 12:10 01:51 06:30 00:15 22:35 - - 22:35
Maximum _ 27,9 C 96 % 1005,0 hPa 1,4 l/m 6,3 km/h
N-NW
- - 19,3 km/h
N
Durchschnitt _ 20,0 C 80 % 1001,7 hPa #7,6 l/m 0,0 km/h N-NW - 0,4 km/h